Regional Weather Roundup
Issued by NWS

Home | Current Version | Previous Version | Graphics & Text | Print | Product List | Glossary On
Versions: 1 2 3 4 5 6 7 8 9 10 11 12 13 14 15 16 17 18 19 20 21 22 23 24 25 26 27 28 29 30 31 32 33 34 35 36 37 38 39 40 41 42 43 44 45 46 47 48 49 50
000
ASUS43 KMKX 231221
RWRWI

WISCONSIN REGIONAL WEATHER ROUNDUP
NATIONAL WEATHER SERVICE MILWAUKEE/SULLIVAN WI
700 AM CDT WED APR 23 2014

NOTE: "FAIR" INDICATES FEW OR NO CLOUDS BELOW 12,000 FEET WITH NO
SIGNIFICANT WEATHER AND/OR OBSTRUCTIONS TO VISIBILITY.

WIZ001-002-006>008-014>016-023>028-231300-
NORTHWEST WISCONSIN

CITY           SKY/WX    TMP DP  RH WIND       PRES   REMARKS
SUPERIOR ARPT  MOCLDY    31  27  84 NE5       30.15R WCI  27
6HR MIN TEMP:  28; 6HR MAX TEMP:  31;

ASHLAND        PTCLDY    29  26  89 CALM      30.17R
6HR MIN TEMP:  23; 6HR MAX TEMP:  29;

HAYWARD        MOCLDY    28  25  88 CALM      30.13S
6HR MIN TEMP:  23; 6HR MAX TEMP:  28;

SIREN          MOCLDY    29  26  86 CALM      30.12R
6HR MIN TEMP:  26; 6HR MAX TEMP:  31;

RICE LAKE      MOCLDY    31  26  84 CALM      30.15R
6HR MIN TEMP:  28; 6HR MAX TEMP:  32;

LADYSMITH      MOCLDY    32  27  79 E6        30.15S WCI  27
6HR MIN TEMP:  27; 6HR MAX TEMP:  32;

EAU CLAIRE     MOCLDY    37  27  67 E6        30.13S WCI  32
6HR MIN TEMP:  29; 6HR MAX TEMP:  37;

MENOMONIE      CLOUDY    34  28  77 CALM      30.13S
6HR MIN TEMP:  33; 6HR MAX TEMP:  37;

NEW RICHMOND   CLOUDY    37  28  68 SE5       30.11S WCI  34
6HR MIN TEMP:  36; 6HR MAX TEMP:  39;

OSCEOLA        CLOUDY    39  28  66 SE6       30.13F WCI  35
6HR MIN TEMP:  36; 6HR MAX TEMP:  40;

$$

WIZ003>005-009-010-017-018-231300-
NORTH CENTRAL WISCONSIN

CITY           SKY/WX    TMP DP  RH WIND       PRES   REMARKS
WOODRUFF       CLEAR     28  19  71 CALM      30.15R
6HR MIN TEMP:  22; 6HR MAX TEMP:  28;

RHINELANDER    CLEAR     26  21  81 CALM      30.15S
6HR MIN TEMP:  18; 6HR MAX TEMP:  27;

EAGLE RIVER    CLEAR     25  25 100 CALM      30.14S
6HR MIN TEMP:  20; 6HR MAX TEMP:  26;

LAND O LAKES   CLEAR     22  21  95 CALM      30.16R
6HR MIN TEMP:  18; 6HR MAX TEMP:  24;

PHILLIPS       MOCLDY    27  25  91 CALM      30.14R
6HR MIN TEMP:  24; 6HR MAX TEMP:  28;

TOMAHAWK       CLEAR     25  24  94 CALM      30.15S
6HR MIN TEMP:  20; 6HR MAX TEMP:  25;

MEDFORD        MOCLDY    30  26  84 E3        30.14R
6HR MIN TEMP:  27; 6HR MAX TEMP:  31;

MERRILL        CLEAR     26  24  95 CALM      30.15S
6HR MIN TEMP:  22; 6HR MAX TEMP:  27;

$$

WIZ029-030-035-036-043>047-231300-
CENTRAL WISCONSIN

CITY           SKY/WX    TMP DP  RH WIND       PRES   REMARKS
WAUSAU         PTCLDY    29  25  85 CALM      30.14S
6HR MIN TEMP:  27; 6HR MAX TEMP:  33;

MOSINEE        CLEAR     30  27  86 NE3       30.16R
MARSHFIELD     MOCLDY    32  27  81 E3        30.14R
6HR MIN TEMP:  31; 6HR MAX TEMP:  37;

STEVENS POINT  PTCLDY    30  25  79 CALM      30.16R
6HR MIN TEMP:  22; 6HR MAX TEMP:  31;

WAUPACA        PTCLDY    34  28  80 CALM      30.18R
WAUTOMA        MOCLDY    29  27  92 CALM      30.17S
6HR MIN TEMP:  27; 6HR MAX TEMP:  32;

WISC RAPIDS    MOCLDY    28  25  88 E5        30.16S WCI  23
6HR MIN TEMP:  26; 6HR MAX TEMP:  32;

CAMP DOUGLAS   MOCLDY    27  27 100 CALM      30.16R
$$

WIZ011>013-019>022-031-037>040-048>050-231300-
NORTHEAST WISCONSIN

CITY           SKY/WX    TMP DP  RH WIND       PRES   REMARKS
ANTIGO         CLEAR     29  28  96 CALM      30.16R
6HR MIN TEMP:  23; 6HR MAX TEMP:  30;

STURGEON BAY   SUNNY     32  25  74 N7        30.18R WCI  26
6HR MIN TEMP:  28; 6HR MAX TEMP:  32;

GREEN BAY      SUNNY     32  28  85 NW3       30.18R
6HR MIN TEMP:  29; 6HR MAX TEMP:  34;

MANITOWOC      SUNNY     33  28  81 NW5       30.17R WCI  29
6HR MIN TEMP:  31; 6HR MAX TEMP:  34;

APPLETON       MOSUNNY   32  25  74 VRB6      30.18R WCI  26
CLINTONVILLE   CLEAR     30  30 100 CALM      30.18R
OSHKOSH        SUNNY     36  27  69 NE6       30.16S WCI  31
6HR MIN TEMP:  30; 6HR MAX TEMP:  39;

$$

WIZ032>034-041-042-053>061-231300-
SOUTHWEST WISCONSIN

CITY           SKY/WX    TMP DP  RH WIND       PRES   REMARKS
LA CROSSE      PTCLDY    38  28  67 SE6       30.15R WCI  33
6HR MIN TEMP:  35; 6HR MAX TEMP:  43;

SPARTA         PTCLDY    28  25  89 CALM      30.16S
6HR MIN TEMP:  25; 6HR MAX TEMP:  31;

VIROQUA        FAIR      36  27  71 SE9       30.13S WCI  29
6HR MIN TEMP:  33; 6HR MAX TEMP:  38;

BOSCOBEL       CLEAR     31  27  85 CALM      30.17R
6HR MIN TEMP:  29; 6HR MAX TEMP:  41;

PRAIRIE DU CHI PTCLDY    40  29  63 E3        30.16R
6HR MIN TEMP:  37; 6HR MAX TEMP:  41;

PLATTEVILLE    FAIR      33  29  85 CALM      30.17R
6HR MIN TEMP:  32; 6HR MAX TEMP:  42;

$$

WIZ056-057-062-063-064-067-068-231300-
SOUTH CENTRAL WISCONSIN

CITY           SKY/WX    TMP DP  RH WIND       PRES   REMARKS
BARABOO/DELLS  CLEAR     31  27  83 CALM      30.16R
6HR MIN TEMP:  29; 6HR MAX TEMP:  37;

LONE ROCK      CLEAR     32  28  85 CALM      30.17R
6HR MIN TEMP:  29; 6HR MAX TEMP:  42;

WATERTOWN      CLEAR     30  28  91 CALM      30.16R
6HR MIN TEMP:  28; 6HR MAX TEMP:  37;

MADISON        PTCLDY    32  28  85 CALM      30.17R
6HR MIN TEMP:  29; 6HR MAX TEMP:  37;

MIDDLETON      FAIR      32  29  90 E3        30.17R
6HR MIN TEMP:  30; 6HR MAX TEMP:  37;

MONROE         CLEAR     34  33  97 E5        30.14S WCI  30
6HR MIN TEMP:  33; 6HR MAX TEMP:  39;

JANESVILLE     CLEAR     34  30  86 CALM      30.16R
$$

WIZ051-052-058>065-066-070>072-231300-
SOUTHEAST WISCONSIN

CITY           SKY/WX    TMP DP  RH WIND       PRES   REMARKS
MILWAUKEE      MOSUNNY   36  29  75 N7        30.17R WCI  30
6HR MIN TEMP:  33; 6HR MAX TEMP:  36;

WAUKESHA       SUNNY     32  27  80 CALM      30.17R
MILWAUKEE/TIMM SUNNY     34  27  75 CALM      30.18R
RACINE         SUNNY     36  28  73 N14       30.17R WCI  27
6HR MIN TEMP:  32; 6HR MAX TEMP:  36;

BURLINGTON     SUNNY     26  25  99 CALM      30.16R
6HR MIN TEMP:  24; 6HR MAX TEMP:  33;

KENOSHA        SUNNY     33  28  81 N6        30.16R WCI  28
6HR MIN TEMP:  25; 6HR MAX TEMP:  34;

FOND DU LAC    MOSUNNY   30  27  88 CALM      30.16S
6HR MIN TEMP:  27; 6HR MAX TEMP:  37;

SHEBOYGAN      SUNNY     33  27  78 NW5       30.17S WCI  29
6HR MIN TEMP:  27; 6HR MAX TEMP:  33;

WEST BEND      MOSUNNY   32  27  80 NE6       30.15F WCI  26
JUNEAU         PTCLDY    32  28  85 CALM      30.18R
6HR MIN TEMP:  29; 6HR MAX TEMP:  38;

$$

LSZ147-162-231300-
LAKE SUPERIOR

STATION/POSITION TIME  TEMP    WIND        PRES    WAVE
                       AIR SEA DIR/SP/G            HT/PER
                 (UTC) (F)     (DEG/KT/KT) (MB)    (FT/S)
DEVILS ISLAND    1200   33     100/  4/  4 1022.3R
PORT WING        1100   25     100/  2/  2 1021.0R
SAXON HARBOR     1140             CALM     1021.3R
$$

LMZ867-665-643>646-231300-
LAKE MICHIGAN

STATION/POSITION TIME  TEMP    WIND        PRES    WAVE
                       AIR SEA DIR/SP/G            HT/PER
                 (UTC) (F)     (DEG/KT/KT) (MB)    (FT/S)
NORTHPORT PIER   1100   30     300/  8/ 10 1021.3R
SISTER BAY       1109   30      10/  6/  7   N/A
KEWAUNEE LAKESHO 1200   34     350/  6/ 10 1022.2R
SHEBOYGAN LAKESH 1200   36     320/  7/  8 1022.6R
PORT WASHINGTON  1100   34     350/  4/  8 1022.0
MILWAUKEE LAKESH 1200   37     350/  7/ 10   N/A
KENOSHA   LAKESH 1200   36     360/  7/ 11   N/A
$$

TC  - TEMPERATURE IN CELSIUS
VSB - VISIBILITY IN STATUTE MILES
WCI - WIND CHILL INDEX
HX  - HEAT INDEX




USA.gov is the U.S. government's official web portal to all federal, state and local government web resources and services.